Location: Ferchesar
(52.6477°N, 12.4298°E)
Time: 17:01:47
(UTC+01:00)

Transit 2A - All Passes

Search period start: 27 February 2021 00:00
Search period end: 09 March 2021 00:00
Orbit: 600 x 958 km, 66.7° (Epoch: 26 February)

Date Brightness Start Highest point End Pass type
(mag) Time Alt. Az. Time Alt. Az. Time Alt. Az.
27 Feb - 01:24:53 10° NNW 01:27:50 16° NNE 01:30:42 10° NE night (unlit)
27 Feb - 03:07:55 10° NNW 03:12:12 41° NE 03:16:19 10° ESE visible
27 Feb - 04:51:14 10° NW 04:55:17 36° WSW 04:59:15 10° S visible
27 Feb - 19:35:47 10° S 19:40:50 44° ESE 19:45:26 10° NE visible
27 Feb - 21:19:09 10° WSW 21:24:03 42° NW 21:28:33 10° NNE visible
27 Feb - 23:05:09 10° WNW 23:08:21 17° NNW 23:11:26 10° NNE visible
28 Feb - 00:50:36 10° NNW 00:53:19 15° N 00:55:58 10° NE night (unlit)
28 Feb - 02:33:48 10° NNW 02:37:52 32° NE 02:41:47 10° E night (unlit)
28 Feb - 04:16:55 10° NW 04:21:13 52° WSW 04:25:24 10° SSE visible
28 Feb - 19:02:03 10° S 19:06:45 33° ESE 19:11:05 10° NE visible
28 Feb - 20:44:40 10° WSW 20:49:46 54° NW 20:54:25 10° NE visible
28 Feb - 22:30:20 10° WNW 22:33:53 19° NNW 22:37:14 10° NNE visible
01 Mar - 00:16:13 10° NNW 00:18:47 14° N 00:21:17 10° NE night (unlit)
01 Mar - 01:59:40 10° NNW 02:03:30 26° NNE 02:07:11 10° E night (unlit)
01 Mar - 03:42:40 10° NW 03:47:05 74° SW 03:51:25 10° SSE visible
01 Mar - 05:28:01 10° W 05:29:21 11° WSW 05:30:42 10° SW visible
01 Mar - 18:28:32 10° SSE 18:32:43 24° ESE 18:36:36 10° ENE visible
01 Mar - 20:10:19 10° SW 20:15:33 71° NW 20:20:17 10° NE visible
01 Mar - 21:55:33 10° WNW 21:59:26 22° NNW 22:03:05 10° NNE visible
01 Mar - 23:41:43 10° NNW 23:44:15 14° N 23:46:42 10° NNE visible
02 Mar - 01:25:32 10° NNW 01:29:05 22° NNE 01:32:30 10° ENE night (unlit)
02 Mar - 03:08:28 10° NW 03:12:56 80° NE 03:17:16 10° SE night (unlit)
02 Mar - 04:52:40 10° WNW 04:55:27 17° WSW 04:58:12 10° SSW night (unlit)
02 Mar - 17:55:22 10° SSE 17:58:44 17° ESE 18:01:54 10° ENE daylight
02 Mar - 19:36:05 10° SW 19:41:21 87° SE 19:46:07 10° NE visible
02 Mar - 21:20:48 10° W 21:25:01 26° NNW 21:28:58 10° NNE visible
02 Mar - 23:07:05 10° NW 23:09:43 14° N 23:12:14 10° NNE visible
03 Mar - 00:51:23 10° NNW 00:54:37 19° NNE 00:57:46 10° ENE night (unlit)
03 Mar - 02:34:18 10° NW 02:38:42 58° NE 02:42:59 10° SE night (unlit)
03 Mar - 04:18:00 10° WNW 04:21:29 24° WSW 04:24:58 10° SSW night (unlit)
03 Mar - 17:22:49 10° SE 17:24:47 12° ESE 17:26:42 10° E daylight
03 Mar - 19:01:59 10° SSW 19:07:11 65° SE 19:11:55 10° NE visible
03 Mar - 20:46:08 10° W 20:50:39 32° NW 20:54:51 10° NNE visible
03 Mar - 22:32:22 10° NW 22:35:11 15° N 22:37:53 10° NNE visible
04 Mar - 00:17:11 10° NNW 00:20:08 17° NNE 00:23:00 10° ENE visible
04 Mar - 02:00:10 10° NNW 02:04:26 43° NE 02:08:35 10° ESE night (unlit)
04 Mar - 03:43:31 10° NW 03:47:28 33° WSW 03:51:23 10° S night (unlit)
04 Mar - 18:28:02 10° SSW 18:33:04 47° ESE 18:37:39 10° NE visible
04 Mar - 20:11:32 10° WSW 20:16:19 40° NW 20:20:44 10° NNE visible
04 Mar - 21:57:35 10° NW 22:00:40 17° NNW 22:03:37 10° NNE visible
04 Mar - 23:42:55 10° NNW 23:45:38 15° N 23:48:15 10° NE visible
05 Mar - 01:26:03 10° NNW 01:30:07 33° NE 01:34:05 10° ESE night (unlit)
05 Mar - 03:09:11 10° NW 03:13:24 48° WSW 03:17:35 10° SSE night (unlit)
05 Mar - 17:54:16 10° S 17:58:59 34° ESE 18:03:19 10° NE daylight
05 Mar - 19:37:02 10° WSW 19:42:02 51° NW 19:46:37 10° NNE visible
05 Mar - 21:22:47 10° WNW 21:26:10 19° NNW 21:29:25 10° NNE visible
05 Mar - 23:08:34 10° NNW 23:11:06 14° N 23:13:33 10° NE visible
06 Mar - 00:51:56 10° NNW 00:55:46 27° NNE 00:59:29 10° E visible
06 Mar - 02:34:55 10° NW 02:39:18 69° SW 02:43:37 10° SSE night (unlit)
06 Mar - 04:20:50 10° W 04:21:32 10° WSW 04:22:15 10° WSW night (unlit)
06 Mar - 17:20:43 10° SSE 17:24:56 25° ESE 17:28:52 10° ENE daylight
06 Mar - 19:02:39 10° SW 19:07:48 67° NW 19:12:29 10° NE visible
06 Mar - 20:47:59 10° WNW 20:51:43 21° NNW 20:55:16 10° NNE visible
06 Mar - 22:34:06 10° NNW 22:36:33 14° N 22:38:57 10° NNE visible
07 Mar - 00:17:47 10° NNW 00:21:21 22° NNE 00:24:49 10° E visible
07 Mar - 02:00:43 10° NW 02:05:09 85° NE 02:09:30 10° SE night (unlit)
07 Mar - 03:45:04 10° WNW 03:47:38 15° WSW 03:50:11 10° SW night (unlit)
07 Mar - 16:47:29 10° SSE 16:50:57 18° ESE 16:54:13 10° ENE daylight
07 Mar - 18:28:24 10° SW 18:33:35 89° WNW 18:38:19 10° NE visible
07 Mar - 20:13:13 10° W 20:17:18 25° NNW 20:21:08 10° NNE visible
07 Mar - 21:59:30 10° NW 22:02:01 14° N 22:04:27 10° NNE visible
07 Mar - 23:43:39 10° NNW 23:46:55 19° NNE 23:50:05 10° ENE visible
08 Mar - 01:26:33 10° NW 01:30:57 61° NE 01:35:14 10° SE night (unlit)
08 Mar - 03:10:18 10° WNW 03:13:41 22° WSW 03:17:02 10° SSW night (unlit)
08 Mar - 16:14:47 10° SE 16:16:59 13° ESE 16:19:08 10° E daylight
08 Mar - 17:54:16 10° SSW 17:59:25 68° SE 18:04:07 10° NE daylight
08 Mar - 19:38:32 10° W 19:42:56 30° NW 19:47:01 10° NNE visible
08 Mar - 21:24:48 10° NW 21:27:29 15° N 21:30:05 10° NNE visible
08 Mar - 23:09:28 10° NNW 23:12:26 17° NNE 23:15:19 10° ENE visible
